TimeCST,TemperatureF,Dew PointF,Humidity,Sea Level PressureIn,VisibilityMPH,Wind Direction,Wind SpeedMPH,Gust SpeedMPH,PrecipitationIn,Events,Conditions,WindDirDegrees,DateUTC
12:15 AM,35.6,19.4,52,29.91,10.0,WNW,8.1,-,N/A,,Clear,290,2014-01-16 06:15:00
12:35 AM,35.6,19.4,52,29.92,10.0,WNW,9.2,-,N/A,,Clear,290,2014-01-16 06:35:00
12:55 AM,35.6,21.2,56,29.92,10.0,WNW,11.5,-,N/A,,Clear,300,2014-01-16 06:55:00
1:15 AM,37.4,19.4,48,29.92,10.0,NW,9.2,-,N/A,,Clear,310,2014-01-16 07:15:00
1:35 AM,35.6,19.4,52,29.92,10.0,NW,11.5,-,N/A,,Clear,310,2014-01-16 07:35:00
1:55 AM,35.6,19.4,52,29.92,10.0,WNW,12.7,-,N/A,,Clear,300,2014-01-16 07:55:00
2:15 AM,37.4,19.4,48,29.94,10.0,NW,16.1,-,N/A,,Clear,310,2014-01-16 08:15:00
2:35 AM,37.4,19.4,48,29.95,10.0,NNW,13.8,-,N/A,,Clear,330,2014-01-16 08:35:00
2:55 AM,39.2,21.2,49,29.94,10.0,NW,13.8,-,N/A,,Clear,320,2014-01-16 08:55:00
3:15 AM,39.2,21.2,49,29.95,10.0,NNW,12.7,-,N/A,,Clear,330,2014-01-16 09:15:00
3:35 AM,37.4,19.4,48,29.95,10.0,NW,11.5,-,N/A,,Clear,310,2014-01-16 09:35:00
3:55 AM,37.4,19.4,48,29.96,10.0,NW,13.8,-,N/A,,Clear,320,2014-01-16 09:55:00
4:15 AM,35.6,19.4,52,29.97,10.0,NW,12.7,-,N/A,,Clear,320,2014-01-16 10:15:00
4:35 AM,33.8,19.4,56,29.98,10.0,NW,12.7,-,N/A,,Clear,320,2014-01-16 10:35:00
4:55 AM,33.8,19.4,56,29.99,10.0,NNW,15.0,-,N/A,,Clear,330,2014-01-16 10:55:00
5:15 AM,35.6,21.2,56,30.01,10.0,NNW,18.4,-,N/A,,Clear,330,2014-01-16 11:15:00
5:35 AM,37.4,21.2,52,30.02,10.0,NW,13.8,-,N/A,,Clear,310,2014-01-16 11:35:00
5:55 AM,33.8,19.4,56,30.02,10.0,WNW,12.7,-,N/A,,Clear,290,2014-01-16 11:55:00
6:15 AM,33.8,21.2,60,30.01,10.0,West,13.8,-,N/A,,Clear,280,2014-01-16 12:15:00
6:35 AM,35.6,21.2,56,30.02,10.0,WNW,15.0,-,N/A,,Scattered Clouds,300,2014-01-16 12:35:00
6:55 AM,37.4,23.0,56,30.01,10.0,WNW,18.4,-,N/A,,Mostly Cloudy,300,2014-01-16 12:55:00
7:15 AM,41.0,23.0,49,30.03,10.0,NW,25.3,31.1,N/A,,Overcast,310,2014-01-16 13:15:00
7:35 AM,42.8,21.2,42,30.04,10.0,NW,20.7,28.8,N/A,,Scattered Clouds,320,2014-01-16 13:35:00
7:55 AM,42.8,21.2,42,30.04,10.0,NW,20.7,29.9,N/A,,Clear,310,2014-01-16 13:55:00
8:15 AM,41.0,21.2,45,30.05,10.0,NW,18.4,28.8,N/A,,Clear,310,2014-01-16 14:15:00
8:35 AM,41.0,21.2,45,30.06,10.0,WNW,20.7,25.3,N/A,,Clear,300,2014-01-16 14:35:00
8:55 AM,41.0,21.2,45,30.07,10.0,WNW,18.4,-,N/A,,Clear,300,2014-01-16 14:55:00
9:15 AM,41.0,21.2,45,30.07,10.0,WNW,21.9,27.6,N/A,,Clear,300,2014-01-16 15:15:00
9:35 AM,42.8,21.2,42,30.08,10.0,NW,20.7,29.9,N/A,,Clear,310,2014-01-16 15:35:00
9:55 AM,42.8,21.2,42,30.08,10.0,WNW,23.0,32.2,N/A,,Clear,300,2014-01-16 15:55:00
10:15 AM,42.8,21.2,42,30.08,10.0,NW,23.0,32.2,N/A,,Clear,310,2014-01-16 16:15:00
10:35 AM,44.6,21.2,39,30.08,10.0,NW,26.5,33.4,N/A,,Clear,310,2014-01-16 16:35:00
10:55 AM,46.4,19.4,34,30.08,10.0,NW,27.6,34.5,N/A,,Clear,320,2014-01-16 16:55:00
11:15 AM,46.4,17.6,32,30.08,10.0,NW,31.1,35.7,N/A,,Clear,310,2014-01-16 17:15:00
11:35 AM,46.4,15.8,29,30.07,10.0,NW,29.9,39.1,N/A,,Clear,310,2014-01-16 17:35:00
11:55 AM,46.4,15.8,29,30.05,10.0,NW,27.6,35.7,N/A,,Clear,310,2014-01-16 17:55:00
12:15 PM,48.2,15.8,27,30.04,10.0,NW,24.2,39.1,N/A,,Clear,310,2014-01-16 18:15:00
12:35 PM,48.2,14.0,25,30.03,10.0,NW,33.4,40.3,N/A,,Clear,310,2014-01-16 18:35:00
12:55 PM,50.0,12.2,22,30.02,10.0,NNW,29.9,41.4,N/A,,Clear,330,2014-01-16 18:55:00
1:15 PM,50.0,10.4,20,30.01,10.0,NW,38.0,43.7,N/A,,Clear,320,2014-01-16 19:15:00
1:35 PM,50.0,10.4,20,30.01,9.0,NW,38.0,48.3,N/A,,Partly Cloudy,320,2014-01-16 19:35:00
1:55 PM,50.0,8.6,19,30.00,8.0,NW,39.1,47.2,N/A,,Scattered Clouds,320,2014-01-16 19:55:00
2:15 PM,50.0,6.8,17,30.00,9.0,NNW,29.9,44.9,N/A,,Mostly Cloudy,330,2014-01-16 20:15:00
2:35 PM,50.0,6.8,17,30.00,6.0,NW,38.0,50.6,N/A,,Overcast,320,2014-01-16 20:35:00
2:55 PM,48.2,5.0,17,30.00,8.0,NW,34.5,44.9,N/A,,Overcast,320,2014-01-16 20:55:00
3:15 PM,48.2,3.2,16,30.01,8.0,NNW,34.5,44.9,N/A,,Overcast,330,2014-01-16 21:15:00
3:35 PM,48.2,3.2,16,30.01,5.0,NW,39.1,49.5,N/A,,Overcast,320,2014-01-16 21:35:00
3:55 PM,48.2,3.2,16,30.02,10.0,NW,33.4,44.9,N/A,,Overcast,320,2014-01-16 21:55:00
4:15 PM,48.2,3.2,16,30.03,10.0,NW,36.8,42.6,N/A,,Overcast,320,2014-01-16 22:15:00
4:35 PM,46.4,3.2,17,30.04,10.0,NW,34.5,44.9,N/A,,Overcast,320,2014-01-16 22:35:00
4:55 PM,46.4,5.0,18,30.05,10.0,NNW,35.7,42.6,N/A,,Overcast,340,2014-01-16 22:55:00
5:15 PM,44.6,3.2,18,30.05,10.0,NNW,32.2,43.7,N/A,,Overcast,330,2014-01-16 23:15:00
5:35 PM,44.6,3.2,18,30.06,10.0,NNW,31.1,40.3,N/A,,Scattered Clouds,330,2014-01-16 23:35:00
5:55 PM,42.8,3.2,19,30.07,10.0,NNW,27.6,34.5,N/A,,Clear,330,2014-01-16 23:55:00
6:15 PM,42.8,6.8,23,30.09,10.0,NNW,21.9,29.9,N/A,,Clear,330,2014-01-17 00:15:00
6:35 PM,41.0,6.8,24,30.10,10.0,North,20.7,31.1,N/A,,Clear,350,2014-01-17 00:35:00
6:55 PM,37.4,8.6,30,30.11,10.0,North,18.4,-,N/A,,Clear,350,2014-01-17 00:55:00
7:15 PM,37.4,10.4,33,30.13,10.0,North,16.1,-,N/A,,Clear,350,2014-01-17 01:15:00
7:35 PM,35.6,10.4,35,30.13,10.0,NNW,16.1,-,N/A,,Clear,340,2014-01-17 01:35:00
7:55 PM,35.6,10.4,35,30.15,10.0,NNW,17.3,21.9,N/A,,Clear,340,2014-01-17 01:55:00
8:15 PM,33.8,10.4,38,30.16,10.0,NNW,19.6,26.5,N/A,,Clear,340,2014-01-17 02:15:00
8:35 PM,33.8,12.2,41,30.17,10.0,NNW,18.4,26.5,N/A,,Clear,340,2014-01-17 02:35:00
8:55 PM,33.8,12.2,41,30.18,10.0,NNW,19.6,25.3,N/A,,Clear,340,2014-01-17 02:55:00
9:15 PM,33.8,12.2,41,30.19,10.0,NNW,20.7,27.6,N/A,,Clear,340,2014-01-17 03:15:00
9:35 PM,33.8,12.2,41,30.20,10.0,NNW,26.5,34.5,N/A,,Clear,340,2014-01-17 03:35:00
9:55 PM,33.8,10.4,38,30.20,10.0,NNW,20.7,29.9,N/A,,Clear,340,2014-01-17 03:55:00
10:15 PM,32.0,10.4,41,30.21,10.0,NNW,17.3,24.2,N/A,,Clear,330,2014-01-17 04:15:00
10:35 PM,30.2,10.4,44,30.21,10.0,NNW,17.3,23.0,N/A,,Clear,340,2014-01-17 04:35:00
10:55 PM,30.2,10.4,44,30.21,10.0,NNW,15.0,-,N/A,,Clear,340,2014-01-17 04:55:00
11:15 PM,30.2,10.4,44,30.22,10.0,NNW,15.0,-,N/A,,Clear,330,2014-01-17 05:15:00
11:35 PM,28.4,10.4,47,30.22,10.0,NNW,12.7,18.4,N/A,,Clear,330,2014-01-17 05:35:00
11:55 PM,28.4,10.4,47,30.22,10.0,NNW,10.4,-,N/A,,Clear,330,2014-01-17 05:55:00